Regional Weather Roundup
Issued by NWS Green Bay, WI

Home | Current Version | Previous Version | Graphics & Text | Print | Product List | Glossary Off
Versions: 1 2 3 4 5 6 7 8 9 10 11 12 13 14 15 16 17 18 19 20 21 22 23 24 25 26 27 28 29 30 31 32 33 34 35 36 37 38 39 40 41 42 43 44 45 46 47 48 49 50

964
ASUS43 KGRB 162001
RWRGRB

NORTH-CENTRAL AND NORTHEAST WISCONSIN REGIONAL WEATHER ROUNDUP
NATIONAL WEATHER SERVICE GREEN BAY WI
300 PM CDT WED AUG 16 2017

WIZ005-009-010>012-018-019-162100-
NORTH CENTRAL WISCONSIN

CITY           SKY/WX    TMP DP  RH WIND       PRES   REMARKS
IRONWOOD       CLOUDY    72  57  59 SE5       29.97F
MANITOWISH WTR NOT AVBL
ARBOR VITAE    NOT AVBL
EAGLE RIVER    NOT AVBL
LAND O LAKES   CLOUDY    76  53  45 SE7       30.00F
RHINELANDER    CLOUDY    74  59  59 E12       29.99F
PHILLIPS       CLOUDY    74  62  64 SE10      29.95F
ANTIGO         NOT AVBL
TOMAHAWK       NOT AVBL
MERRILL        NOT AVBL
$$

WIZ013-073-162100-
NORTHEAST WISCONSIN

CITY           SKY/WX    TMP DP  RH WIND       PRES   REMARKS
IRON MOUNTAIN  MOSUNNY   74  54  49 E8        29.99F
MARINETTE      SUNNY     71  56  58 E10       30.00F
$$

WIZ017-030-035>037-045-162100-
CENTRAL WISCONSIN

CITY           SKY/WX    TMP DP  RH WIND       PRES   REMARKS
MEDFORD        NOT AVBL
WAUSAU         MOSUNNY   76  62  62 SE12G18   29.94F
MOSINEE        MOSUNNY   75  64  69 E8        29.96F
MARSHFIELD     CLOUDY    79  62  56 SE12      29.93F
WISC RAPIDS    CLOUDY    80  64  58 SE13      29.94F
STEVENS POINT  NOT AVBL
WAUPACA        NOT AVBL
SHAWANO        SUNNY     78  60  53 SE7       29.97F
CLINTONVILLE   MOSUNNY   77  61  57 E7        29.97F
WAUTOMA        PTSUNNY   81  64  56 E10       29.93F
$$

WIZ038-039-048-051-162100-
FOX VALLEY

CITY           SKY/WX    TMP DP  RH WIND       PRES   REMARKS
NWS GREEN BAY  PTSUNNY   77  68  73 NE10      29.98F
APPLETON       MOSUNNY   79  59  50 SE10      29.96F
OSHKOSH        SUNNY     78  64  61 E9        29.95F
FOND DU LAC    PTSUNNY   81  64  56 E12       29.95F
$$

WIZ022-050-052-162100-
EAST CENTRAL WISCONSIN

CITY           SKY/WX    TMP DP  RH WIND       PRES   REMARKS
EPHRAIM        NOT AVBL
WASHINGTON ISL NOT AVBL
STURGEON BAY   SUNNY     73  63  70 VRB7      30.00F
MANITOWOC      NOT AVBL
SHEBOYGAN      SUNNY     75  65  70 E9        29.98F
$$

LMZ563-521-522-541>543-162100-
LAKESHORE

STATION/POSITION TIME  TEMP    WIND        PRES    VSBY  WAVE
                       AIR SEA DIR/SP/G                  HT/PER
                 (UTC) (F)     (DEG/KT/KT) (MB)    (MI)  (FT/S)
SHEBOYGAN LKSHOR 1900   68      60/  6/  7 1015.6F
KEWAUNEE LKSHORE 1930   71      50/  4/  7 1015.4F
NORTHPORT PIER   1940   68      90/  6/  9 1016.3F
N MID LAKE BUOY  1850   66 69   60/  6/  8 1017.2F         1
S GREEN BAY BUOY 1930   69 72   50/ 12/ 14 1015.5F
SISTER BAY LKSHO 1918   80      90/  6/  9   N/A
MENOMINEE LKSHOR 1930   67      30/ 10/ 11 1015.7F
$$




USA.gov is the U.S. government's official web portal to all federal, state and local government web resources and services.